Overview Statistics Trail Chart Weather Telemetry Raw packets
 

This is the latest recevied weather packets stored in our database for station/object W6TKD-13. If no packets are shown the sender has not sent any weather packets the latest 10 day(s).

<< 9 10 11 12 13 14 15 >>
Time Temp. Humidity Pressure Rain* Wind** Luminosity Snow
1788015974 17.22° C 50% 1015.5 hPa 0 mm - - -
1788015308 16.67° C 50% 1015.4 hPa 0 mm - - -
1788014640 16.11° C 50% 1015.4 hPa 0 mm - - -
1788013973 15.56° C 49% 1015.4 hPa 0 mm - - -
1788013306 15.56° C 49% 1015.2 hPa 0 mm - - -
1788012640 15° C 48% 1015.3 hPa 0 mm - - -
1788011972 15° C 48% 1015.4 hPa 0 mm - - -
1788010641 15° C 47% 1015.4 hPa 0 mm - - -
1788009971 15.56° C 47% 1015.3 hPa 0 mm - - -
1788009304 15.56° C 47% 1015.3 hPa 0 mm - - -
1788008640 15.56° C 46% 1015.2 hPa 0 mm - - -
1788007970 15.56° C 46% 1015.1 hPa 0 mm - - -
1788007303 15.56° C 45% 1015.1 hPa 0 mm - - -
1788006636 16.11° C 45% 1015 hPa 0 mm - - -
1788005969 16.11° C 45% 1015 hPa 0 mm - - -
1788005302 16.11° C 45% 1015.1 hPa 0 mm - - -
1788004636 16.11° C 45% 1015.2 hPa 0 mm - - -
1788003968 16.67° C 44% 1015.3 hPa 0 mm - - -
1788003301 16.67° C 44% 1015.1 hPa 0 mm - - -
1788002634 16.67° C 44% 1015.2 hPa 0 mm - - -
1788001971 16.67° C 44% 1015.1 hPa 0 mm - - -
1788001300 16.67° C 43% 1015 hPa 0 mm - - -
1788000633 17.22° C 43% 1014.8 hPa 0 mm - - -
1787999966 17.22° C 43% 1014.8 hPa 0 mm - - -
1787999299 17.22° C 43% 1014.8 hPa 0 mm - - -

* Rain since midnight (hover to see other rain measurements)
** Current wind speed in m/s (hover to see current wind gust speed)